Regional Weather Roundup
Issued by NWS Bismarck, ND

Current Version | Previous Version | Text Only | Print | Product List | Glossary On
Versions: 1 2 3 4 5 6 7 8 9 10 11 12 13 14 15 16 17 18 19 20 21 22 23 24 25 26 27 28 29 30 31 32 33 34 35 36 37 38 39 40 41 42 43 44 45 46 47 48 49 50
000
ASUS43 KBIS 060720
RWRBIS

NWR BROADCAST TEXT
NATIONAL WEATHER SERVICE BISMARCK ND
200 AM CDT WED MAY 06 2015

NOTE: "FAIR" INDICATES FEW OR NO CLOUDS BELOW 12,000 FEET WITH NO
SIGNIFICANT WEATHER AND/OR OBSTRUCTIONS TO VISIBILITY.


CITY           SKY/WX    TMP DP  RH WIND       PRES   REMARKS
WILLISTON      CLEAR     61  50  67 SE10      29.74F
MINOT          CLEAR     52  42  69 SE8       29.81F
MINOT AFB      CLEAR     52  43  70 SE9       29.80S
BISMARCK       CLOUDY    59  32  36 S16       29.86S
DICKINSON      PTCLDY    54  51  90 SE13      29.76F
GARRISON         N/A     57  50  77 S10       29.82F
HETTINGER ARPT CLOUDY    56  53  90 SE15      29.80F
JAMESTOWN      CLOUDY    61  55  81 SE13      29.92S
BEACH          FAIR      54  54 100 SE14      29.74F
CARRINGTON     PTSUNNY   59  59 100 SE16      29.91F
CROSBY         FAIR      52  48  87 SE9       29.77S
HARVEY         FAIR      59  52  77 SE10G17   29.88S
HAZEN          FAIR      57  50  77 S14       29.83S
LINTON         CLOUDY    57  57 100 S5        29.88S FOG
MANDAN         CLOUDY    59  55  88 S17       29.86F
OAKES            N/A     59  57  94 SE13      29.93F
STANLEY        FAIR      52  50  93 SE5       29.81S
TIOGA          FAIR      55  54  94 SE13      29.80F
WATFORD CITY   FAIR      55  50  82 SE12      29.74F
$$

CITY           SKY/WX    TMP DP  RH WIND       PRES   REMARKS
GRAND FORKS    PTCLDY    60  52  74 SE12      29.96S
GRAND FORKS AF NOT AVBL
DEVILS LAKE    CLOUDY    61  52  72 SE14      29.91S
FARGO          CLOUDY    63  53  70 S15G25    29.97S
CANDO          FAIR      57  52  82 SE12      29.91S
CAVALIER       FAIR      63  52  67 S14       29.94F
GRAFTON        FAIR      59  52  77 SE12      29.96S
GWINNER          N/A     61  57  88 SE18      29.96F
LANGDON        FAIR      59  52  77 S17       29.93F
WALHALLA       FAIR      61  50  67 S13       29.93F
$$

CITY           SKY/WX    TMP DP  RH WIND       PRES   REMARKS
ABERDEEN       MOCLDY    60  56  86 SE10      29.90F
MOBRIDGE       LGT RAIN  59  57  93 SE8       29.84F
BUFFALO          N/A     58  52  80 SE20G26   29.70F
RAPID CITY     CLOUDY    55  51  86 SE7       29.80F
GLASGOW        MOCLDY    62  49  62 VRB6      29.66F
SIDNEY         CLEAR     57  48  72 SE7       29.71F
WOLF POINT     PTCLDY    59  50  72 E8        29.68S
GLENDIVE       CLEAR     57  48  72 SE9       29.71F
MILES CITY     PTCLDY    59  49  69 SE13      29.68R
BAKER          PTCLDY    54  49  83 SE12      29.75S
$$

CITY           SKY/WX    TMP DP  RH WIND       PRES   REMARKS
BILLINGS       LGT RAIN  56  47  71 NW9       29.75S
GREAT FALLS    CLOUDY    48  46  93 W3        29.81R
REGINA         PTCLDY    61  50  67 SE17      29.71S
ESTEVAN        PTCLDY    52  43  71 E9        29.77F
$$




USA.gov is the U.S. government's official web portal to all federal, state and local government web resources and services.